Weather History for KLLQ - November, 2012

Change the Weather History Date:

Thursday, November 1, 2012

  Actual Average Record
Temperature  
Mean Temperature 58 °F -  
Max Temperature 73 °F 72 °F - (-1)
Min Temperature 44 °F 49 °F - (-1)
Degree Days  
Heating Degree Days 6    
Growing Degree Days 8 (Base 50)    
Moisture  
Dew Point 48 °F    
Average Humidity 73    
Maximum Humidity 93    
Minimum Humidity 44    
Precipitation  
Precipitation 0.00 in - - ()
Sea Level Pressure  
Sea Level Pressure 30.02 in    
Wind  
Wind Speed 1 mph (West)    
Max Wind Speed 5 mph    
Max Gust Speed -    
Averages and records for this station are not official NWS values.
T = Trace of Precipitation, MM = Missing Value Source: NWS Daily Summary

Daily Weather History Graph

Daily Weather History Graph

Search for Another Location

Airport or City:

Trip Planner

Search our weather history database for the weather conditions in past years. The results will help you decide how hot, cold, wet, or windy it might be!

Date:

Astronomy

Nov. 01, 2012 Rise Set
Actual Time 7:26 AM CDT 6:14 PM CDT
Civil Twilight 7:00 AM CDT 6:40 PM CDT
Nautical Twilight 6:31 AM CDT 7:09 PM CDT
Astronomical Twilight 6:02 AM CDT 7:38 PM CDT
Moon 8:17 PM CDT (11/1) 9:53 AM CDT (11/1)
Length of Visible Light 11h 39m
Length of Day
10h 47m
Waning Gibbous, 93% of the Moon is Illuminated
Nov 1
Waning Gibbous
Nov 6
Last Quarter
Nov 13
New
Nov 20
First Quarter
Nov 28
Full

Hourly Weather History & Observations

Time (CDT) Temp. Windchill Dew Point Humidity Pressure Visibility Wind Dir Wind Speed Gust Speed Precip Events Conditions
12:53 AM 46.0 °F - 44.1 °F 93% 30.01 in - Calm Calm - N/A   Clear
1:53 AM 46.0 °F - 43.0 °F 89% 30.01 in - Calm Calm - N/A   Clear
2:53 AM 45.0 °F - 43.0 °F 93% 30.01 in - Calm Calm - N/A   Clear
3:53 AM 45.0 °F 43.5 °F 42.1 °F 90% 30.01 in - West 3.5 mph - N/A   Clear
4:53 AM 46.0 °F 43.9 °F 43.0 °F 89% 30.01 in - West 4.6 mph - N/A   Clear
5:53 AM 45.0 °F - 43.0 °F 93% 30.03 in - Calm Calm - N/A   Clear
6:53 AM 44.1 °F - 42.1 °F 93% 30.05 in - Calm Calm - N/A   Clear
7:53 AM 44.1 °F - 42.1 °F 93% 30.06 in - Calm Calm - N/A   Clear
8:53 AM 54.0 °F - 48.9 °F 83% 30.09 in - Calm Calm - N/A   Clear
9:53 AM 57.9 °F - 46.0 °F 65% 30.10 in - NE 4.6 mph - N/A   Clear
10:53 AM 60.1 °F - 45.0 °F 57% 30.10 in - Calm Calm - N/A   Clear
11:53 AM 66.0 °F - 46.0 °F 48% 30.08 in - Calm Calm - N/A   Clear
12:53 PM 68.0 °F - 48.9 °F 50% 30.04 in - Calm Calm - N/A   Clear
1:53 PM 71.1 °F - 48.9 °F 45% 30.01 in - NNW 4.6 mph - N/A   Clear
2:53 PM 72.0 °F - 50.0 °F 46% 29.99 in - SSW 4.6 mph - 0.00 in   Clear
3:53 PM 73.0 °F - 50.0 °F 44% 29.98 in - SW 3.5 mph - N/A   Clear
4:53 PM 73.0 °F - 50.0 °F 44% 29.98 in - Calm Calm - N/A   Clear
5:53 PM 69.1 °F - 54.0 °F 58% 29.97 in - Calm Calm - N/A   Clear
6:53 PM 63.0 °F - 55.0 °F 75% 29.97 in - Calm Calm - 0.00 in   Clear
7:53 PM 61.0 °F - 54.0 °F 78% 29.97 in - Calm Calm - N/A   Clear
8:53 PM 59.0 °F - 54.0 °F 83% 29.98 in - Calm Calm - N/A   Clear
9:53 PM 55.9 °F - 52.0 °F 87% 29.99 in - Calm Calm - N/A   Clear
10:53 PM 57.0 °F - 52.0 °F 83% 29.99 in - Calm Calm - N/A   Clear
11:53 PM 60.1 °F - 51.1 °F 72% 29.98 in - Calm Calm - N/A   Clear